map of STR home
STR - Airport
Location
City:  Stuttgart, Baden-Württemberg, Germany
Name:Echterdingen
ICAO:EDDS
IATA:STR

Details
Type:Airport (Flugplatz, Airfield)
Use:Public/Civil, Military, International (customs port of entry)
Latitude:48°41'24"N (48.689878)
Longitude:9°13'19"E (9.221964)
Datum:WGS 1984
Elevation:1276 ft (389 m)
Variation:2.63°E (WMM2015 magnetic declination)
0.13° annual change
Runways:1
Longest:10974 × 148 ft (3345 × 45 m), paved

Time
Time Zone:UTC+1 (DST+2)
Local Time:

Weather
METAR:EDDS 180720Z VRB01KT CAVOK 09/08 Q1020 NOSIG
TAF:EDDS 180500Z 1806/1906 VRB02KT CAVOK
BECMG 1808/1810 04006KT
BECMG 1818/1820 VRB02KT

Related Locations
Nearby:
Farthest:CHT: 12001 mi / 19313 km
Waitangi [Tuuta], CIT, NZ

Find:

   beyond  
but within

Other Information
Maps:
NOTAMs:
Links:
Sources:

  
  • flag of Germany
  • flag of Baden-Württemberg
  • flag of Stuttgart
  

Airport Diagram

Airport diagram for STR

Larger airport diagram (OBSOLETE) from NGA

Sectional Chart

Flight Planning
at skyvector.com

Satellite Image

Google Maps Satellite view

 

Copyright © 2004-2018 Karl L. Swartz. All rights reserved.
The Great Circle Mapper name and logo are trademarks of the Great Circle Mapper.
All other trademarks mentioned herein belong to their respective owners.
Please see credits for attibutions and further copyright information.

  Follow gcmap on Facebook Follow gcmap on Twitter Follow gcmap on Google+ GCmap on LinkedIn

hCard Microformat

Geo Microformat